Temp
71 75 74 76 77 77 76 76 76 76 76 76 76 76 76 76 76 76 76 76 77 78 79 79 79 79 77 78 77 77 76 76 76 76 77 77 77 77 77 75 74 78 77
73 76 73 75 76 76 75 75 75 75 76 76 76 76 76 76 76 76 76 76 76 78 78 78 78 77 77 77 76 76 76 75 75 74 74 75 76 76 77 75 74 77 76
73 76 76 74 75 75 75 75 75 75 76 76 76 76 76 76 76 76 75 75 76 77 77 77 77 76 76 76 76 75 75 75 74 73 73 78 77 76 77 75 74 76 76
74 75 76 72 74 74 74 74 74 75 76 76 76 76 76 76 76 75 75 75 75 76 76 77 76 76 75 75 75 75 75 74 73 72 77 76 76 74 77 75 75 76 76
74 74 74 72 74 74 74 74 74 74 75 75 75 75 75 75 75 74 74 74 74 75 75 76 75 75 74 74 74 74 74 74 72 73 75 75 76 74 75 77 76 75 74
72 73 72 72 74 74 74 74 74 74 74 75 75 75 74 74 74 73 73 73 73 74 74 75 74 74 73 73 73 73 73 73 71 76 76 74 75 73 75 76 75 74 73
69 71 74 72 73 73 73 74 73 73 73 73 73 73 73 72 72 72 72 72 72 72 73 73 73 72 72 72 72 72 72 70 75 75 75 74 74 72 74 75 76 75 74
68 69 72 67 69 71 72 72 72 72 72 72 71 70 70 70 70 70 70 70 70 71 70 70 70 69 69 69 70 69 68 67 72 74 74 74 72 71 74 75 75 75 74
68 69 67 68 66 65 66 67 68 69 69 68 68 67 67 66 66 66 67 68 68 68 68 68 68 67 67 67 67 66 65 65 71 72 72 73 69 71 74 75 75 75 75
65 66 64 64 64 65 65 63 64 65 65 65 64 62 61 62 61 62 62 64 65 65 66 66 65 65 64 63 63 63 63 64 70 72 73 73 68 71 74 74 74 74 74
59 60 61 61 62 62 62 61 61 61 61 60 60 58 58 58 58 59 59 60 61 61 62 62 62 61 60 59 59 60 61 68 68 69 71 67 68 71 73 74 74 74 74
56 57 60 61 61 61 63 59 59 59 58 57 57 57 57 56 56 56 55 55 56 56 57 58 58 57 56 58 60 60 63 64 65 67 69 66 68 70 72 73 74 74 74
58 58 59 59 59 59 57 57 57 56 56 55 55 55 55 55 54 54 54 52 52 52 53 53 53 54 54 55 57 58 59 61 63 64 65 62 65 67 69 71 73 74 73
56 58 57 58 57 56 56 56 56 55 55 54 54 54 54 53 53 52 52 52 51 50 50 50 50 52 53 53 54 55 56 57 59 61 62 58 60 64 67 68 70 71 72
57 56 56 56 56 55 54 54 54 54 54 53 53 53 53 52 51 52 51 51 51 50 49 49 49 50 50 51 52 53 54 55 56 58 60 56 58 61 65 67 69 69 71
56 56 55 55 55 55 53 53 52 52 52 52 52 52 52 51 51 50 50 49 50 50 49 48 48 48 48 49 50 51 51 53 54 55 57 58 57 59 61 64 66 68 70
57 55 54 54 54 54 53 52 51 52 51 50 50 50 50 50 49 49 48 48 48 49 48 48 48 48 47 48 47 49 50 51 52 53 55 56 57 56 57 60 63 65 66
56 55 54 57 53 52 51 50 50 49 49 48 49 49 49 48 48 48 47 47 47 47 48 47 46 45 45 45 46 47 48 49 50 51 53 54 55 56 57 57 59 60 62
57 54 53 53 51 50 49 49 48 47 47 47 47 47 47 47 46 46 46 45 45 45 45 45 45 44 44 44 45 47 47 48 49 51 51 52 53 54 56 55 55 55 57
55 55 54 52 50 48 47 46 45 45 45 46 45 46 45 45 45 45 44 44 44 43 43 43 43 44 44 44 45 45 46 47 48 48 50 52 53 53 54 54 55 56 55
51 51 51 50 48 47 46 44 44 45 43 43 44 44 44 44 43 43 43 43 43 42 41 42 42 41 43 44 42 44 45 47 48 49 51 51 51 51 52 53 54 54 54
50 51 51 51 47 47 47 45 45 44 43 44 43 42 42 42 42 43 41 41 41 41 40 40 40 40 42 43 40 40 39 44 46 49 49 49 48 49 50 51 51 51 52
48 50 50 49 47 47 44 42 41 41 41 41 41 41 41 41 41 41 40 40 40 40 39 39 40 39 37 41 43 40 36 35 38 46 46 46 47 47 49 49 50 50 51
49 50 50 48 46 45 43 43 43 43 42 41 41 40 39 40 39 39 39 39 39 39 38 39 41 39 39 37 41 44 42 40 34 33 42 44 46 46 46 47 48 49 50
47 47 48 46 45 43 43 44 43 41 40 39 38 38 38 38 38 38 38 38 38 39 38 38 38 39 40 38 38 38 38 39 40 35 32 38 42 44 45 46 47 48 49
45 45 45 44 43 42 42 41 42 40 38 37 37 37 37 37 37 36 37 37 38 38 38 38 38 37 38 38 38 38 37 35 36 35 33 35 35 40 43 45 46 47 48
MSLP
1012.98 1012.99 1013.27 1013.58 1014.03 1014.31 1014.51 1014.73 1015.09 1015.27 1015.35 1015.45 1015.67 1015.79 1015.94 1016.00 1016.14 1016.28 1016.39 1016.49 1016.55 1016.63 1016.68 1016.89 1016.98 1017.06 1017.34 1017.41 1017.51 1017.64 1017.83 1017.96 1018.05 1018.07 1017.99 1018.04 1018.15 1018.22 1018.26 1018.38 1018.42 1018.23 1018.19
1012.70 1012.97 1013.26 1013.53 1013.98 1014.34 1014.57 1014.87 1015.17 1015.41 1015.55 1015.69 1015.85 1016.01 1016.24 1016.35 1016.49 1016.61 1016.75 1016.87 1016.87 1016.94 1016.96 1016.99 1017.10 1017.29 1017.44 1017.50 1017.65 1017.80 1017.99 1018.12 1018.26 1018.27 1018.29 1018.22 1018.36 1018.41 1018.49 1018.58 1018.47 1018.36 1018.38
1012.81 1013.03 1013.35 1013.73 1014.00 1014.34 1014.77 1015.00 1015.25 1015.54 1015.62 1015.82 1016.02 1016.18 1016.46 1016.54 1016.76 1016.98 1017.00 1017.09 1017.13 1017.20 1017.28 1017.31 1017.34 1017.52 1017.61 1017.73 1017.79 1017.97 1018.11 1018.18 1018.25 1018.42 1018.50 1018.39 1018.29 1018.36 1018.39 1018.55 1018.66 1018.54 1018.49
1012.77 1013.17 1013.45 1013.96 1014.21 1014.44 1014.82 1015.07 1015.32 1015.55 1015.80 1016.00 1016.11 1016.33 1016.47 1016.72 1016.95 1017.11 1017.27 1017.41 1017.41 1017.48 1017.51 1017.52 1017.55 1017.72 1017.83 1017.86 1017.95 1018.01 1018.17 1018.32 1018.38 1018.49 1018.42 1018.46 1018.41 1018.45 1018.26 1018.39 1018.53 1018.51 1018.41
1013.05 1013.32 1013.66 1013.97 1014.23 1014.57 1014.91 1015.19 1015.48 1015.74 1015.98 1016.11 1016.39 1016.47 1016.62 1016.87 1017.18 1017.29 1017.52 1017.61 1017.64 1017.62 1017.63 1017.72 1017.80 1017.89 1017.95 1018.05 1018.04 1018.09 1018.14 1018.30 1018.37 1018.49 1018.51 1018.53 1018.51 1018.49 1018.40 1018.24 1018.39 1018.41 1018.42
1013.23 1013.41 1013.75 1013.99 1014.35 1014.68 1015.05 1015.35 1015.58 1015.89 1016.14 1016.36 1016.56 1016.81 1016.98 1017.08 1017.29 1017.42 1017.62 1017.72 1017.78 1017.83 1017.93 1017.86 1017.91 1018.01 1018.00 1018.13 1018.16 1018.22 1018.22 1018.33 1018.35 1018.30 1018.36 1018.40 1018.39 1018.32 1018.29 1018.23 1018.28 1018.40 1018.42
1013.36 1013.64 1013.84 1014.10 1014.43 1014.83 1015.16 1015.46 1015.72 1016.06 1016.36 1016.55 1016.74 1016.96 1017.31 1017.50 1017.52 1017.63 1017.78 1017.92 1018.01 1018.02 1018.05 1017.99 1018.06 1018.13 1018.21 1018.15 1018.20 1018.23 1018.24 1018.29 1018.25 1018.22 1018.29 1018.31 1018.30 1018.31 1018.21 1018.06 1018.02 1018.11 1018.27
1013.42 1013.90 1014.21 1014.50 1014.68 1015.04 1015.32 1015.59 1015.90 1016.24 1016.60 1016.81 1017.04 1017.27 1017.59 1017.94 1018.00 1018.00 1018.15 1018.22 1018.32 1018.42 1018.43 1018.41 1018.44 1018.54 1018.55 1018.41 1018.31 1018.31 1018.29 1018.28 1018.12 1017.99 1018.04 1018.01 1018.02 1018.05 1017.93 1017.85 1017.79 1017.84 1017.90
1013.68 1013.99 1014.52 1014.82 1015.14 1015.40 1015.71 1016.04 1016.30 1016.64 1017.03 1017.29 1017.58 1017.87 1017.88 1018.26 1018.61 1018.62 1018.60 1018.59 1018.67 1018.75 1018.75 1018.79 1018.77 1018.75 1018.73 1018.65 1018.62 1018.56 1018.52 1018.35 1018.12 1018.05 1018.10 1017.96 1018.04 1018.06 1017.81 1017.69 1017.58 1017.55 1017.45
1014.33 1014.33 1014.82 1015.15 1015.52 1015.84 1016.14 1016.36 1016.87 1017.10 1017.48 1017.79 1018.13 1018.36 1018.48 1018.50 1018.92 1019.10 1019.10 1019.05 1019.01 1019.04 1019.02 1019.09 1019.07 1019.03 1019.06 1018.93 1018.85 1018.71 1018.53 1018.15 1017.96 1017.81 1017.70 1017.56 1017.64 1017.60 1017.44 1017.31 1017.18 1017.15 1017.13
1014.96 1015.11 1015.08 1015.48 1015.84 1016.12 1016.53 1017.01 1017.23 1017.60 1017.92 1018.19 1018.52 1018.75 1018.87 1019.13 1019.29 1019.48 1019.60 1019.54 1019.50 1019.49 1019.45 1019.43 1019.38 1019.35 1019.28 1019.18 1019.01 1018.83 1018.57 1018.19 1018.09 1017.75 1017.53 1017.52 1017.50 1017.24 1017.01 1016.85 1016.69 1016.62 1016.59
1015.01 1015.42 1015.57 1015.63 1016.12 1016.36 1016.84 1017.29 1017.53 1017.93 1018.25 1018.58 1018.89 1019.15 1019.24 1019.43 1019.63 1019.82 1019.94 1019.96 1019.96 1019.98 1019.93 1019.81 1019.76 1019.72 1019.53 1019.39 1019.15 1018.94 1018.68 1018.53 1018.23 1017.93 1017.54 1017.44 1017.23 1016.94 1016.63 1016.37 1016.21 1016.04 1016.04
1014.81 1015.52 1015.75 1016.02 1016.41 1016.70 1017.18 1017.52 1017.91 1018.17 1018.56 1018.88 1019.12 1019.33 1019.49 1019.57 1019.80 1019.92 1020.00 1020.16 1020.18 1020.13 1020.09 1020.06 1019.97 1019.91 1019.84 1019.66 1019.36 1019.18 1018.92 1018.64 1018.30 1018.01 1017.54 1017.48 1017.29 1017.06 1016.56 1016.10 1015.78 1015.47 1015.46
1015.07 1015.47 1015.86 1016.13 1016.55 1017.00 1017.35 1017.76 1018.12 1018.38 1018.66 1019.03 1019.37 1019.50 1019.55 1019.71 1019.97 1020.07 1020.15 1020.29 1020.32 1020.33 1020.32 1020.31 1020.27 1020.08 1019.89 1019.67 1019.41 1019.13 1018.92 1018.66 1018.35 1017.95 1017.47 1017.43 1017.25 1016.94 1016.47 1016.28 1015.89 1015.39 1014.99
1014.93 1015.23 1015.71 1016.09 1016.44 1016.98 1017.45 1017.97 1018.42 1018.61 1018.89 1019.23 1019.45 1019.67 1019.73 1019.95 1020.16 1020.29 1020.40 1020.47 1020.53 1020.51 1020.50 1020.38 1020.29 1020.08 1019.96 1019.71 1019.45 1019.23 1018.89 1018.57 1018.24 1017.88 1017.44 1017.20 1016.98 1016.66 1016.33 1015.99 1015.70 1015.38 1014.93
1014.57 1014.98 1015.53 1016.01 1016.39 1016.87 1017.37 1017.84 1018.39 1018.73 1019.12 1019.40 1019.65 1019.88 1019.97 1020.12 1020.29 1020.43 1020.61 1020.73 1020.75 1020.73 1020.59 1020.47 1020.41 1020.19 1019.97 1019.80 1019.42 1019.17 1018.77 1018.38 1018.06 1017.79 1017.39 1016.93 1016.62 1016.36 1016.10 1015.83 1015.52 1015.18 1014.70
1014.09 1014.78 1015.43 1015.95 1016.36 1016.66 1017.20 1017.79 1018.29 1018.79 1019.18 1019.53 1019.80 1019.99 1020.04 1020.13 1020.43 1020.70 1020.82 1020.86 1020.88 1020.68 1020.47 1020.35 1020.24 1020.14 1019.97 1019.71 1019.39 1018.97 1018.66 1018.26 1017.87 1017.45 1017.08 1016.65 1016.31 1016.13 1015.98 1015.74 1015.41 1015.05 1014.68
1013.83 1014.34 1015.25 1015.68 1016.20 1016.68 1017.22 1017.86 1018.36 1018.97 1019.32 1019.62 1019.84 1019.98 1020.12 1020.39 1020.70 1020.84 1020.88 1020.94 1020.89 1020.61 1020.38 1020.31 1020.28 1020.07 1019.85 1019.59 1019.16 1018.73 1018.30 1017.91 1017.43 1017.09 1016.80 1016.59 1016.32 1016.03 1015.73 1015.59 1015.36 1015.07 1014.73
1013.13 1014.06 1014.82 1015.38 1016.02 1016.65 1017.37 1018.00 1018.59 1019.12 1019.46 1019.73 1019.87 1020.12 1020.44 1020.66 1020.83 1020.88 1020.95 1020.96 1020.83 1020.66 1020.55 1020.50 1020.35 1020.24 1019.76 1019.34 1018.93 1018.32 1017.80 1017.34 1017.08 1016.88 1016.79 1016.51 1016.31 1016.12 1015.83 1015.55 1015.36 1015.13 1014.76
1012.80 1013.55 1014.31 1015.18 1015.91 1016.67 1017.45 1018.33 1018.98 1019.36 1019.72 1019.91 1020.10 1020.27 1020.56 1020.79 1020.94 1020.93 1020.95 1020.95 1020.88 1020.74 1020.72 1020.70 1020.47 1020.14 1019.78 1019.27 1018.55 1017.90 1017.38 1016.99 1016.85 1016.84 1016.66 1016.39 1016.23 1016.06 1015.88 1015.61 1015.34 1014.97 1014.69
1012.57 1013.19 1013.92 1014.81 1015.80 1016.48 1017.48 1018.29 1019.07 1019.25 1019.84 1020.09 1020.15 1020.43 1020.80 1020.91 1020.88 1020.89 1020.97 1020.98 1020.94 1020.87 1020.89 1020.75 1020.47 1020.05 1019.43 1019.19 1018.36 1017.55 1016.99 1016.84 1016.74 1016.79 1016.56 1016.40 1016.45 1016.43 1016.18 1015.81 1015.48 1015.12 1014.72
1011.69 1012.43 1013.40 1014.15 1015.22 1015.95 1016.59 1017.42 1017.99 1018.74 1019.53 1019.87 1020.24 1020.57 1020.74 1020.79 1020.81 1020.81 1021.01 1020.96 1020.95 1020.95 1020.88 1020.77 1020.57 1020.19 1019.86 1019.73 1019.29 1018.59 1017.69 1017.02 1016.80 1016.47 1016.65 1016.67 1016.74 1016.56 1016.22 1016.02 1015.73 1015.38 1014.97
1011.06 1011.59 1012.56 1013.50 1014.52 1015.38 1016.20 1017.21 1018.10 1018.74 1019.55 1020.07 1020.35 1020.53 1020.66 1020.74 1020.83 1020.89 1020.93 1020.91 1020.95 1020.96 1020.89 1020.83 1020.66 1020.53 1020.34 1020.08 1019.89 1019.75 1018.98 1018.56 1018.11 1017.05 1016.74 1016.90 1016.80 1016.71 1016.50 1016.13 1015.60 1015.20 1014.81
1010.04 1011.10 1011.91 1012.96 1014.15 1015.12 1015.89 1016.55 1016.99 1017.70 1018.65 1019.23 1019.65 1020.23 1020.57 1020.73 1020.84 1020.90 1020.89 1020.96 1020.99 1021.00 1020.95 1020.79 1020.62 1020.71 1020.52 1020.27 1020.10 1019.91 1020.21 1020.14 1019.42 1018.21 1017.39 1017.19 1017.16 1017.06 1016.63 1016.14 1015.61 1015.12 1014.64
1009.69 1010.52 1011.53 1012.59 1013.80 1014.69 1015.43 1016.00 1016.67 1017.48 1018.13 1018.94 1019.61 1020.01 1020.36 1020.63 1020.77 1020.92 1020.93 1020.97 1020.97 1020.97 1020.87 1020.80 1020.78 1020.64 1020.58 1020.60 1020.52 1020.42 1020.33 1020.06 1019.89 1019.56 1017.94 1017.29 1017.37 1017.01 1016.60 1016.13 1015.53 1014.95 1014.47
1009.41 1010.35 1011.32 1012.38 1013.46 1014.47 1015.20 1015.92 1016.44 1017.08 1017.96 1018.74 1019.38 1019.78 1020.18 1020.50 1020.74 1020.92 1020.93 1020.99 1020.96 1020.87 1020.78 1020.82 1020.76 1020.75 1020.79 1020.76 1020.60 1020.43 1020.35 1020.21 1019.89 1019.89 1018.96 1017.97 1017.48 1016.53 1016.37 1015.82 1015.17 1014.66 1014.31
Wind_Speed
6 10 10 14 13 13 14 13 12 10 12 13 12 12 13 14 14 13 11 10 8 7 6 5 5 6 5 5 6 6 6 3 3 3 4 4 3 3 4 4 3 4 7
11 9 12 13 13 12 13 12 11 10 11 13 13 13 13 13 14 13 12 11 10 9 8 6 3 4 3 2 4 5 4 2 2 2 2 2 2 2 3 5 5 5 7
11 11 12 11 13 12 12 12 11 10 12 12 12 13 12 13 12 12 12 11 11 11 10 9 8 7 5 4 2 3 4 2 1 1 2 2 2 4 4 6 6 7 8
12 10 10 11 13 13 12 11 10 10 10 11 12 12 12 11 11 10 10 10 10 9 9 9 9 9 9 7 4 2 2 1 1 1 2 2 3 5 7 8 9 11 10
11 10 11 12 13 13 12 11 10 10 10 11 10 10 10 10 9 9 9 8 8 8 7 7 7 8 9 8 7 6 3 2 1 3 3 3 4 5 9 9 11 11 9
9 10 12 12 13 13 12 12 11 11 11 10 9 9 9 10 9 9 9 8 8 7 7 7 7 7 8 8 8 8 7 5 3 4 4 4 6 8 10 11 10 12 11
8 7 10 11 12 12 12 12 12 12 11 11 10 11 12 12 12 12 12 13 16 15 14 12 11 10 10 7 7 7 6 6 5 5 5 6 7 10 12 13 12 12 13
10 7 9 9 10 11 12 12 13 12 12 13 15 15 16 15 16 16 15 15 16 15 14 15 15 14 15 15 13 12 11 8 7 7 7 7 9 11 14 15 15 14 14
9 10 7 8 11 14 15 15 15 15 16 17 17 17 17 17 16 16 16 15 14 14 14 14 14 14 14 14 14 14 12 9 7 5 7 7 8 14 17 17 17 16 15
6 8 7 7 7 8 9 16 15 16 17 17 17 16 16 17 15 15 14 15 15 14 14 14 14 14 13 14 13 13 13 9 7 7 6 6 11 15 18 19 19 19 18
4 3 6 7 7 9 9 10 13 16 16 15 13 14 11 7 9 10 13 14 14 14 14 14 14 14 14 12 13 13 10 5 7 6 6 8 13 16 18 20 19 19 20
8 5 5 10 9 9 8 9 9 9 8 8 8 8 6 7 8 7 9 13 13 14 13 14 14 13 11 7 6 9 5 8 6 7 6 9 15 17 19 20 21 20 20
9 7 8 9 8 9 7 6 4 4 5 5 7 6 6 5 5 5 4 5 5 9 6 8 8 6 9 7 6 6 8 8 5 6 8 15 18 19 19 21 23 22 22
11 10 9 9 8 8 6 5 6 5 5 5 5 6 4 4 5 5 4 5 5 5 7 7 5 8 9 9 9 9 9 8 6 6 8 12 16 19 21 21 22 22 24
11 10 10 9 9 8 8 6 5 5 5 5 5 6 4 4 4 3 4 4 5 5 5 6 6 7 8 9 9 9 10 10 10 7 7 12 17 19 20 21 22 22 22
10 11 10 10 9 9 8 8 6 5 6 5 5 5 6 4 4 4 4 4 4 4 4 5 6 6 7 8 9 9 10 10 10 11 8 10 17 19 21 22 23 24 24
10 10 11 10 10 9 9 8 6 5 5 5 4 5 6 6 5 4 3 3 4 4 5 5 6 6 7 7 9 9 9 10 10 11 10 9 10 16 17 20 21 23 23
11 13 10 10 10 9 9 7 6 5 5 5 4 4 7 6 5 4 3 3 4 4 5 5 5 6 6 7 8 9 9 9 11 11 10 9 8 9 12 16 19 20 21
14 13 12 11 11 10 9 7 7 7 5 4 4 5 6 5 5 4 3 3 5 4 5 5 6 5 7 8 9 9 9 9 9 8 10 10 9 9 8 12 16 16 18
13 13 13 10 11 10 7 7 5 5 4 4 4 4 5 4 4 4 3 4 4 4 5 5 6 5 6 8 10 8 8 7 6 4 6 6 7 8 8 9 8 9 16
10 13 14 14 12 10 6 5 3 4 3 3 4 5 4 3 4 4 3 3 4 5 5 6 5 7 5 8 6 6 5 4 6 6 6 5 8 9 10 10 8 7 8
16 16 15 15 15 10 7 3 3 4 2 3 4 5 4 4 4 3 3 3 4 3 5 6 6 4 3 8 6 4 5 2 6 7 4 5 10 9 10 10 11 12 10
16 18 17 16 16 11 8 7 5 5 4 3 3 3 2 3 3 3 3 3 3 3 3 4 4 6 4 4 7 3 4 4 10 4 9 6 14 8 10 12 13 12 12
15 15 16 16 15 11 11 7 6 5 4 3 3 3 3 3 3 3 3 3 2 2 3 3 4 3 3 4 4 4 5 6 4 6 4 9 4 12 12 10 11 13 14
14 15 14 15 14 11 11 8 6 5 3 4 4 5 4 3 3 3 3 2 2 1 3 3 3 4 3 3 3 4 5 4 6 5 9 6 9 8 9 10 11 10 13
12 13 13 16 13 12 11 9 9 9 8 6 5 4 3 2 2 2 2 2 1 2 3 3 3 4 4 3 3 3 3 3 4 6 7 12 13 7 9 9 9 9 10
Wind_Direction
163 160 158 143 145 144 136 126 119 112 109 104 98 90 87 84 76 70 72 78 82 90 102 121 143 142 155 157 155 143 142 132 106 48 104 150 143 188 184 178 168 153 145
142 151 142 140 144 145 136 127 122 118 114 109 103 96 90 86 84 83 77 74 73 71 68 81 124 122 80 7 179 146 144 109 46 30 16 139 173 218 223 206 186 175 164
136 139 138 133 137 134 131 130 127 124 118 112 106 102 96 89 84 80 74 68 66 65 64 57 49 40 39 49 122 172 154 160 155 341 343 234 212 238 221 202 215 201 179
140 139 134 132 129 128 128 127 127 124 117 112 109 105 100 97 92 84 79 73 66 62 58 53 49 42 36 28 341 247 207 246 286 301 259 244 240 259 231 201 218 211 196
143 143 143 135 129 125 121 117 116 119 117 109 105 103 100 93 85 81 73 63 56 48 41 40 36 28 25 19 12 8 323 296 277 249 262 267 264 267 267 225 223 220 207
146 140 138 135 132 128 123 118 112 107 102 98 94 89 88 88 83 73 66 55 46 38 30 26 24 18 11 360 358 358 356 338 273 256 250 242 246 247 256 266 236 241 226
102 109 128 127 129 126 124 121 113 105 100 95 93 91 78 73 71 67 60 52 52 49 43 38 29 23 18 2 348 338 342 339 307 280 267 264 259 263 267 266 266 245 243
117 101 103 102 105 111 106 101 98 100 95 90 86 82 76 73 71 72 68 61 54 48 44 40 38 32 26 19 10 5 351 336 302 283 268 260 253 255 261 264 267 268 252
110 113 93 92 93 87 89 91 93 94 93 90 89 88 85 77 70 66 62 59 54 46 41 36 30 26 17 18 14 12 354 338 314 295 291 285 282 275 271 269 268 268 262
99 108 113 97 94 99 99 90 94 95 95 92 88 83 77 74 66 58 51 48 45 38 33 28 22 19 12 12 5 1 348 326 321 302 281 271 259 267 271 271 269 266 266
88 132 113 108 107 104 101 98 93 93 92 89 83 79 73 69 67 59 53 46 42 33 28 23 17 11 4 1 357 351 341 339 335 319 302 293 279 279 275 272 270 267 265
149 152 131 129 126 112 113 107 98 94 88 86 83 81 79 74 67 67 53 46 41 31 23 18 11 5 2 353 340 339 334 325 315 310 303 304 300 291 282 278 274 272 268
151 152 159 136 130 123 121 113 109 102 99 88 82 79 75 75 62 57 53 34 28 25 20 10 4 5 353 346 337 329 321 316 306 300 295 309 308 313 312 298 282 277 273
166 161 156 145 136 125 120 120 120 113 106 93 79 74 73 68 57 48 41 32 31 22 12 10 357 348 345 338 333 325 320 313 307 299 292 292 297 297 298 296 297 307 293
175 165 165 154 142 137 126 122 118 112 104 104 88 73 75 72 65 53 43 32 27 15 14 2 354 348 341 337 333 324 316 309 303 296 294 292 292 292 291 289 289 293 293
174 173 162 161 149 144 138 135 127 118 114 101 92 85 76 73 62 48 38 32 25 13 6 3 349 339 333 330 323 318 311 307 301 296 295 296 292 293 294 294 294 292 292
182 163 169 160 154 144 138 131 130 129 119 109 102 88 80 69 66 63 52 32 11 8 5 356 348 338 325 326 317 314 306 300 297 296 292 286 292 292 293 296 297 298 297
167 173 165 161 156 142 140 134 129 125 119 115 105 88 73 71 66 63 46 29 9 5 3 356 347 331 326 327 321 313 303 298 294 294 294 300 302 302 304 307 309 310 308
177 168 168 158 157 145 132 126 122 121 114 110 99 90 84 77 66 64 50 25 13 13 13 356 346 338 326 327 319 314 305 297 301 309 313 308 307 306 311 314 317 319 319
176 171 164 158 150 137 122 115 108 107 103 103 104 94 89 72 64 64 52 34 22 17 13 0 340 337 316 321 319 314 303 307 309 317 325 328 342 349 348 348 347 342 338
169 165 166 156 157 146 143 136 137 146 142 116 104 104 103 93 71 75 57 35 25 24 10 0 341 345 349 346 328 333 335 4 49 6 344 24 36 10 360 354 350 349 343
178 175 171 169 163 164 154 137 140 146 144 126 129 121 103 92 74 82 52 36 27 13 10 6 7 353 341 5 345 328 340 342 6 343 42 20 7 348 354 359 349 338 332
182 178 174 170 168 165 137 123 100 95 93 123 155 145 110 95 80 70 59 43 18 11 1 359 8 18 347 354 4 346 335 336 342 335 344 5 347 355 340 327 324 323 321
185 176 173 165 165 160 156 152 152 160 154 165 142 139 133 96 76 61 51 35 12 353 351 354 17 1 359 350 355 33 341 316 336 318 305 322 344 329 323 320 320 318 316
170 172 166 160 160 157 165 161 151 143 122 131 130 137 128 105 83 58 52 39 20 4 7 12 357 350 354 341 346 332 316 294 268 272 302 320 313 322 311 323 311 309 312
162 163 160 160 160 158 161 161 160 152 149 145 153 155 148 130 116 63 58 33 11 13 13 13 355 344 329 314 289 289 294 300 303 293 297 309 310 311 314 299 300 309 308